Content
SEND FEEDBACK

Daily
Averages
Monthly
Summary
Grenada

SAINT GEORGE'S, GRENADA


Home > Caribbean > Grenada
Elevation: 23 feet     Latitude: 12 01N     Longitude: 061 48W

WEATHER
 
SELECT A DAY
Number of Records: 153,845;   Date Range: 6/30/96 - 8/10/14
 
SHARE

PRINT THIS DATA

[ ← Previous Day ]
WEATHER ALMANAC - FEBRUARY 10, 2013
[ Next Day → ]
[ °C ]   °F
Weather ElementAverageHighLow
Temperature80.2 °F86 °F (12:00 pm)75.2 °F (4:00 am)
Dewpoint72.3 °F75.2 °F (10:00 am)69.8 °F (9:00 pm)
Humidity75.6 %94 % (4:00 am)53 % (2:00 pm)
Barometer29.94 in29.99 in (11:00 pm)29.89 in (5:00 pm)
Wind Speed13.2 mph20.7 mph (1:00 pm)
Weather ElementAverage
Visibility7.3 mi
Wind DirectionE (86.5 °)

Weather ElementTotal
Precipitation---
Cooling Degree Days15.6 (Base 65)
Growing Degree Days30.6 (Base 50)
Averaged from 31 records on February 10, 2013
WEATHER CONDITIONS BREAKOUT
WIND DIRECTION BREAKOUT
WEATHER BY HOUR - FEBRUARY 10, 2013
[ °C ]   °F
Local TimeTemperatureDewpointHumidityBarometerVisibilityWind DirectionWind SpeedGust SpeedPrecipitationEventsConditions
1:00 AM78.8 °F73.4 °F83 %29.92 in6.2 miESE (110°)13.8 mphPartly Cloudy
2:00 AM78.0 °F73.0 °F80 %29.92 in11.0 miENE (70°)9.2 mphWidespread Dust
2:00 AM78.8 °F73.4 °F83 %29.92 in6.2 miENE (70°)9.2 mphScattered Clouds
3:00 AM77.0 °F73.4 °F89 %29.92 in6.2 miESE (110°)13.8 mphScattered Clouds
4:00 AM75.2 °F73.4 °F94 %29.92 in6.2 miEast (80°)9.2 mphScattered Clouds
5:00 AM76.0 °F74.0 °F90 %29.92 in11.0 miEast (90°)13.8 mphRainLight Rain Showers
5:00 AM75.2 °F73.4 °F94 %29.92 in6.2 miEast (90°)13.8 mphScattered Clouds
6:00 AM77.0 °F73.4 °F89 %29.95 in6.2 miESE (110°)17.3 mphRainLight Rain Showers
7:00 AM75.2 °F73.4 °F94 %29.95 in6.2 miENE (70°)9.2 mphRainLight Rain Showers
8:00 AM79.0 °F74.0 °F79 %29.97 in4.0 miEast (90°)18.4 mphRainLight Rain Showers
8:00 AM78.8 °F73.4 °F83 %29.95 in3.7 miEast (90°)18.4 mphRainLight Rain Showers
9:00 AM80.6 °F73.4 °F79 %29.98 in6.2 miEast (90°)18.4 mphMostly Cloudy
10:00 AM84.2 °F75.2 °F74 %29.98 in6.2 miEast (100°)18.4 mphPartly Cloudy
11:00 AM84.0 °F72.0 °F59 %29.98 in11.0 miEast (80°)11.5 mphWidespread Dust
11:00 AM84.2 °F71.6 °F66 %29.98 in6.2 miEast (80°)11.5 mphMostly Cloudy
12:00 PM86.0 °F73.4 °F66 %29.98 in6.2 miEast (90°)11.5 mphMostly Cloudy
1:00 PM86.0 °F71.6 °F62 %29.95 in6.2 miEast (90°)20.7 mphScattered Clouds
2:00 PM86.0 °F71.0 °F53 %29.93 in12.0 miEast (80°)17.3 mphWidespread Dust
2:00 PM86.0 °F71.6 °F62 %29.92 in6.2 miEast (80°)17.3 mphPartly Cloudy
3:00 PM86.0 °F71.6 °F62 %29.92 in6.2 miESE (120°)17.3 mphPartly Cloudy
4:00 PM82.4 °F71.6 °F70 %29.92 in6.2 miESE (110°)15.0 mphPartly Cloudy
5:00 PM82.0 °F72.0 °F63 %29.92 in12.0 miEast (100°)16.1 mphWidespread Dust
5:00 PM82.4 °F71.6 °F70 %29.89 in6.2 miEast (100°)16.1 mphPartly Cloudy
6:00 PM80.6 °F71.6 °F74 %29.92 in6.2 miEast (100°)13.8 mphPartly Cloudy
7:00 PM78.8 °F71.6 °F78 %29.92 in6.2 miEast (80°)9.2 mphPartly Cloudy
8:00 PM78.0 °F71.0 °F72 %29.96 in12.0 miEast (80°)9.2 mphWidespread Dust
8:00 PM78.8 °F71.6 °F78 %29.92 in6.2 miEast (80°)9.2 mphPartly Cloudy
9:00 PM77.0 °F69.8 °F78 %29.98 in6.2 miENE (70°)9.2 mphPartly Cloudy
10:00 PM78.8 °F69.8 °F74 %29.98 in6.2 miENE (70°)8.1 mphPartly Cloudy
11:00 PM78.0 °F70.0 °F71 %29.99 in12.0 miNE (50°)6.9 mphWidespread Dust
11:00 PM78.8 °F69.8 °F74 %29.98 in6.2 miNE (50°)6.9 mphPartly Cloudy
Hourly data recorded from TGPY, located miles away from Saint George's, Grenada







STORIES FROM OUR PARTNERS